Stations météo

Publicité
Cap Corse, France (7785): Température de l'air & dewpoint: 10.01.2018 09:00:00 - 16.01.2018 09:00:00 (CET)Cap Corse, France (7785): Vitesse du vent & gusts: 10.01.2018 09:00:00 - 16.01.2018 09:00:00 (CET)Cap Corse, France (7785): Direction du vent: 10.01.2018 09:00:00 - 16.01.2018 09:00:00 (CET)Cap Corse, France (7785): reduced air pressure: 10.01.2018 09:00:00 - 16.01.2018 09:00:00 (CET)Cap Corse, France (7785): visibility: 10.01.2018 09:00:00 - 16.01.2018 09:00:00 (CET)Cap Corse, France (7785): Quantités de précipitations: 10.01.2018 09:00:00 - 16.01.2018 09:00:00 (CET)
Date & Time tt [°C] td [°C] ff [km/h] ff [knt] fx [km/h] fx [knt] dd ppp [hPa] vv [km] rr [mm]
16.01.2018 09:00:00 - - - - - - - - - -
16.01.2018 08:00:00 12,3 7,4 83 45 158 85 W 1010,7 - 0,0
16.01.2018 07:00:00 12,2 7,1 84 46 165 89 WSW 1011,9 - 0,0
16.01.2018 06:00:00 12,1 6,6 85 46 154 83 W 1012,2 - 0,0
16.01.2018 05:00:00 12,2 7,1 84 45 138 75 W 1013,2 - 0,0
16.01.2018 04:00:00 11,8 7,1 89 48 145 78 W 1013,7 15 0,0
16.01.2018 03:00:00 12,1 8,0 94 51 144 78 W 1014,8 - 0,0
16.01.2018 02:00:00 11,7 7,2 67 36 125 68 W 1016,4 - 0,0
16.01.2018 01:00:00 11,9 7,0 75 40 116 62 W 1016,9 - 0,0
16.01.2018 00:00:00 11,7 6,8 65 35 107 58 W 1018,3 - 0,0
15.01.2018 23:00:00 11,9 7,0 59 32 99 54 W 1018,6 - 0,0
15.01.2018 22:00:00 11,7 6,8 51 28 89 48 W 1019,2 - 0,0
15.01.2018 21:00:00 11,5 6,4 44 24 70 38 W 1019,5 - 0,0
15.01.2018 20:00:00 11,9 6,6 26 14 67 36 W 1019,8 - 0,0
15.01.2018 19:00:00 11,9 6,8 37 20 62 33 W 1019,6 - 0,0
15.01.2018 18:00:00 11,7 6,8 32 17 47 26 W 1020,2 - 0,0
15.01.2018 17:00:00 11,5 6,8 28 15 42 23 W 1020,8 - 0,0
15.01.2018 16:00:00 11,6 6,9 27 15 38 20 W 1020,8 18 0,0
15.01.2018 15:00:00 11,9 6,0 11 6 24 13 WSW 1021,0 - 0,0
15.01.2018 14:00:00 12,0 5,6 8 5 12 6 W 1021,3 - 0,0
15.01.2018 13:00:00 12,6 5,5 5 3 9 5 NW 1022,0 15 0,0
15.01.2018 12:00:00 12,8 5,2 4 2 10 5 WNW 1022,6 - 0,0
15.01.2018 11:00:00 11,9 4,4 8 4 13 7 WSW 1023,3 - 0,0
15.01.2018 10:00:00 12,1 4,6 6 4 17 9 ESE 1022,9 15 0,0
15.01.2018 09:00:00 9,1 3,5 2 1 9 5 S 1022,5 - 0,0
15.01.2018 08:00:00 8,0 2,4 6 3 31 17 W 1022,2 - 0,0
15.01.2018 07:00:00 8,8 3,0 18 10 34 19 SSE 1021,4 15 0,0
15.01.2018 06:00:00 7,7 3,0 4 2 24 13 NNW 1021,5 - 0,0
15.01.2018 05:00:00 8,0 3,1 3 2 26 14 E 1021,6 - 0,0
15.01.2018 04:00:00 8,7 3,5 15 8 36 20 ESE 1021,7 15 0,0
15.01.2018 03:00:00 9,2 4,2 23 12 35 19 SE 1021,9 - 0,0
15.01.2018 02:00:00 9,2 4,8 21 12 30 16 SE 1021,9 - 0,0
15.01.2018 01:00:00 8,8 4,6 18 10 28 15 SE 1022,0 - 0,0
15.01.2018 00:00:00 8,7 3,9 21 11 27 15 SE 1022,2 - 0,0
14.01.2018 23:00:00 8,9 3,7 22 12 29 15 SE 1022,1 - 0,0
14.01.2018 22:00:00 8,8 3,6 22 12 31 17 SE 1022,0 - 0,0
14.01.2018 21:00:00 8,8 3,2 22 12 29 16 SE 1021,6 - 0,0
14.01.2018 20:00:00 8,7 2,7 21 11 31 17 SE 1021,3 - 0,0
14.01.2018 19:00:00 8,7 2,7 22 12 31 17 SE 1020,7 - 0,0
14.01.2018 18:00:00 8,8 2,4 22 12 34 19 SE 1020,3 - 0,0
14.01.2018 17:00:00 9,7 2,8 21 11 39 21 ESE 1020,0 - 0,0
14.01.2018 16:00:00 10,8 3,1 27 14 42 23 ESE 1019,6 20 0,0
14.01.2018 15:00:00 11,4 3,7 18 10 38 21 ESE 1019,5 - 0,0
14.01.2018 14:00:00 11,5 3,0 22 12 35 19 SE 1019,4 - 0,0
14.01.2018 13:00:00 11,4 3,2 19 11 34 18 E 1019,5 20 0,0
14.01.2018 12:00:00 11,3 3,1 16 9 30 16 E 1020,2 - 0,0
14.01.2018 11:00:00 10,7 3,9 18 10 29 16 ESE 1020,5 - 0,0
14.01.2018 10:00:00 10,0 3,3 19 10 32 17 ESE 1020,2 20 0,0
14.01.2018 09:00:00 9,4 2,7 22 12 34 19 ESE 1019,8 - 0,0
14.01.2018 08:00:00 9,0 2,1 24 13 36 20 ESE 1019,6 - 0,0
14.01.2018 07:00:00 9,2 1,8 23 12 40 21 ESE 1019,4 20 0,0
14.01.2018 06:00:00 9,1 1,3 24 13 37 20 ESE 1019,3 - 0,0
14.01.2018 05:00:00 8,9 1,5 27 15 39 21 ESE 1019,4 - 0,0
14.01.2018 04:00:00 8,8 1,7 24 13 38 20 ESE 1019,6 20 0,0
14.01.2018 03:00:00 8,9 1,5 22 12 32 17 SE 1020,2 - 0,0
14.01.2018 02:00:00 8,8 1,7 22 12 36 19 ESE 1020,1 - 0,0
14.01.2018 01:00:00 8,9 2,0 22 12 34 18 ESE 1020,2 - 0,0
14.01.2018 00:00:00 9,2 1,8 22 12 37 20 SE 1020,9 - 0,0
13.01.2018 23:00:00 9,0 2,3 23 12 32 17 SE 1020,9 - 0,0
13.01.2018 22:00:00 9,1 3,3 23 12 30 16 SE 1020,7 - 0,0
13.01.2018 21:00:00 8,9 2,9 22 12 29 15 SE 1020,9 - 0,0
13.01.2018 20:00:00 7,8 2,0 10 5 18 10 SSE 1020,9 - 0,0
13.01.2018 19:00:00 8,0 2,0 3 2 19 10 WSW 1020,8 - 0,0
13.01.2018 18:00:00 7,9 2,8 10 5 14 7 SSE 1020,6 - 0,0
13.01.2018 17:00:00 8,3 2,9 7 4 10 5 SE 1020,6 - 0,0
13.01.2018 16:00:00 10,8 3,3 3 2 11 6 E 1020,6 20 0,0
13.01.2018 15:00:00 12,0 3,7 6 3 17 9 ENE 1020,5 - 0,0
13.01.2018 14:00:00 12,4 3,9 11 6 16 9 ENE 1020,4 - 0,0
13.01.2018 13:00:00 12,8 4,0 9 5 14 8 E 1020,9 20 0,0
13.01.2018 12:00:00 12,0 3,7 8 5 23 12 E 1021,6 - 0,0
13.01.2018 11:00:00 12,2 4,2 13 7 24 13 E 1021,7 - 0,0
13.01.2018 10:00:00 11,0 4,2 16 9 29 16 ESE 1021,6 20 0,0
13.01.2018 09:00:00 10,0 4,4 19 10 28 15 ESE 1021,3 - 0,0
13.01.2018 08:00:00 9,8 3,7 15 8 21 11 E 1021,1 - 0,0
13.01.2018 07:00:00 9,0 3,6 13 7 23 12 E 1020,8 - 0,0
13.01.2018 06:00:00 9,0 3,2 15 8 28 15 E 1020,6 - 0,0
13.01.2018 05:00:00 9,4 2,9 17 9 37 20 E 1020,7 - 0,0
13.01.2018 04:00:00 10,6 2,9 27 14 51 28 E 1020,8 18 0,0
13.01.2018 03:00:00 10,7 1,5 34 19 49 27 E 1020,9 - 0,0
13.01.2018 02:00:00 10,6 2,2 35 19 58 32 E 1020,8 - 0,0
13.01.2018 01:00:00 10,6 1,7 35 19 58 31 E 1020,7 - 0,0
13.01.2018 00:00:00 10,8 2,1 39 21 58 31 E 1020,6 - 0,0
12.01.2018 23:00:00 10,7 3,0 41 22 56 30 E 1020,5 - 0,0
12.01.2018 22:00:00 10,4 2,7 29 16 52 28 E 1020,3 - 0,0
12.01.2018 21:00:00 10,6 2,9 32 18 53 29 E 1019,9 - 0,0
12.01.2018 20:00:00 10,7 3,0 34 19 51 28 E 1019,5 - 0,0
12.01.2018 19:00:00 11,1 3,1 33 18 48 26 E 1018,9 - 0,0
12.01.2018 18:00:00 11,2 3,5 31 17 50 27 E 1018,5 - 0,0
12.01.2018 17:00:00 11,7 3,9 29 16 45 24 E 1017,9 - 0,0
12.01.2018 16:00:00 11,8 3,8 30 16 44 24 E 1017,5 20 0,0
12.01.2018 15:00:00 11,7 3,9 27 15 48 26 E 1016,9 - 0,0
12.01.2018 14:00:00 12,0 4,0 31 17 50 27 E 1016,4 - 0,0
12.01.2018 13:00:00 11,5 3,8 35 19 55 30 E 1016,5 20 0,0
12.01.2018 12:00:00 11,3 3,6 40 22 59 32 E 1016,7 - 0,0
12.01.2018 11:00:00 11,4 3,9 37 20 66 36 E 1017,0 - 0,0
12.01.2018 10:00:00 11,6 2,6 47 25 71 39 E 1016,2 15 0,0
12.01.2018 09:00:00 11,6 2,9 48 26 77 42 E 1015,3 - 0,0
12.01.2018 08:00:00 11,7 2,9 50 27 73 39 E 1014,8 - 0,0
12.01.2018 07:00:00 11,5 4,2 55 30 76 41 E 1014,0 15 0,0
12.01.2018 06:00:00 11,4 4,8 44 24 61 33 E 1013,5 - 0,0
12.01.2018 05:00:00 11,6 4,8 45 24 67 36 E 1013,2 - 0,0
12.01.2018 04:00:00 11,5 4,9 37 20 53 28 E 1013,2 15 0,0
12.01.2018 03:00:00 11,6 5,2 37 20 72 39 E 1012,9 - 0,0
12.01.2018 02:00:00 11,3 5,4 44 24 61 33 E 1012,4 - 0,0
12.01.2018 01:00:00 11,1 6,2 45 25 61 33 E 1012,1 - 0,0
12.01.2018 00:00:00 10,5 6,6 44 24 62 33 E 1012,2 - 0,0
11.01.2018 23:00:00 10,2 6,7 44 24 61 33 E 1011,8 - 0,0
11.01.2018 22:00:00 10,1 7,0 43 23 64 34 E 1011,6 - 0,0
11.01.2018 21:00:00 10,7 6,3 42 23 61 33 E 1011,2 - 0,0
11.01.2018 20:00:00 10,7 6,4 44 24 65 35 E 1010,8 - 0,0
11.01.2018 19:00:00 10,9 5,8 45 24 66 36 E 1010,4 15 0,0
11.01.2018 18:00:00 11,1 6,2 35 19 53 28 E 1010,3 - 0,0
11.01.2018 17:00:00 10,8 7,1 29 16 43 23 E 1009,8 - 0,0
11.01.2018 16:00:00 10,9 7,4 21 11 32 17 E 1009,6 15 0,0
11.01.2018 15:00:00 10,8 7,3 13 7 26 14 ESE 1009,6 - 0,4
11.01.2018 14:00:00 11,5 8,0 14 8 24 13 ESE 1009,3 - 2,0
11.01.2018 13:00:00 12,8 6,2 12 6 23 12 E 1009,4 15 0,0
11.01.2018 12:00:00 12,3 5,5 15 8 27 15 E 1009,9 - 0,0
11.01.2018 11:00:00 12,4 7,3 12 6 22 12 E 1010,3 - 0,0
11.01.2018 10:00:00 11,1 7,6 3 2 15 8 W 1010,5 12 0,0
11.01.2018 09:00:00 10,5 7,6 9 5 23 12 WSW 1010,2 - 0,0
11.01.2018 08:00:00 9,7 6,6 11 6 18 10 WSW 1010,2 - 0,0
11.01.2018 07:00:00 9,8 6,9 13 7 22 12 WSW 1010,2 15 0,0
11.01.2018 06:00:00 9,8 6,1 13 7 35 19 W 1010,0 - 0,0
11.01.2018 05:00:00 10,8 7,5 18 10 27 14 W 1010,2 - 0,0
11.01.2018 04:00:00 10,9 7,9 14 7 24 13 WSW 1010,8 16 0,0
11.01.2018 03:00:00 9,9 7,1 15 8 23 12 WSW 1011,3 - 0,0
11.01.2018 02:00:00 10,3 7,0 7 4 18 10 W 1011,5 - 0,0
11.01.2018 01:00:00 10,2 7,3 8 5 17 9 SE 1011,8 - 0,0
11.01.2018 00:00:00 10,7 8,5 12 7 21 12 ESE 1012,4 - 0,0
10.01.2018 23:00:00 10,5 8,3 11 6 20 11 ESE 1012,9 - 0,0
10.01.2018 22:00:00 11,0 8,2 11 6 24 13 NE 1013,0 - 0,0
10.01.2018 21:00:00 10,7 5,9 4 2 23 12 E 1013,4 - 0,2
10.01.2018 20:00:00 10,6 5,8 18 10 22 12 SE 1013,4 - 0,0
10.01.2018 19:00:00 10,6 6,7 11 6 14 8 ESE 1013,6 - 0,0
10.01.2018 18:00:00 11,3 6,4 9 5 19 11 W 1014,0 - 0,0
10.01.2018 17:00:00 11,9 6,2 9 5 23 12 NW 1014,2 - 0,0
10.01.2018 16:00:00 12,5 6,7 8 4 10 6 WNW 1014,3 18 0,0
10.01.2018 15:00:00 12,9 5,6 3 1 10 6 NNW 1014,3 - 0,0
10.01.2018 14:00:00 13,8 5,2 7 4 15 8 ESE 1014,7 - 0,0
10.01.2018 13:00:00 13,7 4,6 9 5 21 11 W 1015,5 15 0,0
10.01.2018 12:00:00 13,9 5,0 7 4 18 10 WSW 1016,4 - 0,0
10.01.2018 11:00:00 14,0 4,6 6 4 23 12 W 1017,1 - 0,0
10.01.2018 10:00:00 13,4 4,5 15 8 21 11 SE 1017,3 15 0,0
10.01.2018 09:00:00 10,8 3,6 5 3 11 6 SSW 1017,7 - 0,0

tt = Température de l'air
td = dewpoint
ff = Vitesse du vent
fx = gusts
dd = Direction du vent
ppp = reduced air pressure
vv = visibility
rr = Quantités de précipitations

stations d'obs. à proximité